Twentynine Palms, CA

10:03 PM PST on February 11, 2016 (GMT -0800)
Twentynine Palms Expeditionary Air Field

Weather History for KNXP - October, 2014

Change the Weather History Date:

Tuesday, October 28, 2014

  Actual Average Record
Temperature  
Mean Temperature 66 °F -  
Max Temperature 81 °F 73 °F 91 °F (2003)
Min Temperature 53 °F 48 °F 35 °F (1996)
Cooling Degree Days 2    
Growing Degree Days 16 (Base 50)    
Moisture  
Dew Point 26 °F    
Average Humidity 25    
Maximum Humidity 38    
Minimum Humidity 14    
Precipitation  
Precipitation 0.00 in - - ()
Sea Level Pressure  
Sea Level Pressure 29.96 in    
Wind  
Wind Speed 4 mph (WNW)    
Max Wind Speed 8 mph    
Max Gust Speed -    
Visibility 10 miles    
Events      
Averages and records for this station are not official NWS values.
T = Trace of Precipitation, MM = Missing Value Source: NWS Daily Summary

Daily Weather History Graph

Daily Weather History Graph

Search for Another Location

Airport or City:

Trip Planner

Search our weather history database for the weather conditions in past years. The results will help you decide how hot, cold, wet, or windy it might be!

Date:

Astronomy

Oct. 28, 2014 Rise Set
Actual Time 7:01 AM PDT 5:55 PM PDT
Civil Twilight 6:35 AM PDT 6:21 PM PDT
Nautical Twilight 6:05 AM PDT 6:50 PM PDT
Astronomical Twilight 5:36 AM PDT 7:19 PM PDT
Moon 11:29 AM PDT (10/28) 10:09 PM PDT (10/28)
Length of Visible Light 11h 45m
Length of Day
10h 54m
Waxing Crescent, 25% of the Moon is Illuminated
Oct 28
Waxing Crescent
Oct 30
First Quarter
Nov 6
Full
Nov 14
Last Quarter
Nov 22
New

Hourly Weather History & Observations

Time (PDT) Temp. Dew Point Humidity Pressure Visibility Wind Dir Wind Speed Gust Speed Precip Events Conditions
12:56 AM 57.9 °F 27.0 °F 31% 29.99 in 10.0 mi West 5.8 mph - N/A   Clear
1:56 AM 55.9 °F 27.0 °F 33% 30.00 in 10.0 mi WNW 5.8 mph - N/A   Clear
2:56 AM 54.0 °F 26.1 °F 34% 30.00 in 10.0 mi WNW 3.5 mph - N/A   Clear
3:56 AM 53.1 °F 27.0 °F 37% 30.00 in 10.0 mi NNW 3.5 mph - N/A   Clear
4:56 AM 53.1 °F 27.0 °F 37% 30.01 in 10.0 mi WNW 6.9 mph - N/A   Clear
5:56 AM 53.1 °F 28.0 °F 38% 30.02 in 10.0 mi NW 5.8 mph - N/A   Clear
6:56 AM 53.1 °F 28.0 °F 38% 30.05 in 9.0 mi WNW 4.6 mph - N/A   Clear
7:56 AM 53.1 °F 27.0 °F 37% 30.07 in 9.0 mi NW 6.9 mph - N/A   Clear
8:56 AM 57.0 °F 26.1 °F 30% 29.42 in 6.0 mi NW 3.5 mph - N/A   Haze
9:56 AM 62.1 °F 26.1 °F 25% 30.09 in 10.0 mi North 3.5 mph - N/A   Clear
10:56 AM 70.0 °F 27.0 °F 20% 30.09 in 9.0 mi Calm Calm - N/A   Clear
11:56 AM 75.9 °F 25.0 °F 15% 30.06 in 10.0 mi Calm Calm - N/A   Clear
12:56 PM 78.1 °F 25.0 °F 14% 30.04 in 10.0 mi Variable 4.6 mph - N/A   Clear
1:56 PM 79.0 °F 27.0 °F 15% 30.01 in 10.0 mi Calm Calm - N/A   Clear
2:56 PM 80.1 °F 27.0 °F 14% 30.01 in 10.0 mi East 4.6 mph - N/A   Clear
3:56 PM 80.1 °F 27.0 °F 14% 30.01 in 10.0 mi SE 3.5 mph - N/A   Clear
4:56 PM 80.1 °F 27.0 °F 14% 30.01 in 10.0 mi Calm Calm - N/A   Clear
5:56 PM 75.9 °F 26.1 °F 16% 30.01 in 10.0 mi SSE 3.5 mph - N/A   Clear
6:56 PM 70.0 °F 26.1 °F 19% 29.37 in 10.0 mi South 3.5 mph - N/A   Clear
7:56 PM 66.9 °F 26.1 °F 21% 30.06 in 10.0 mi WSW 5.8 mph - N/A   Clear
8:56 PM 66.0 °F 26.1 °F 22% 29.40 in 9.0 mi Calm Calm - N/A   Clear
9:56 PM 64.0 °F 26.1 °F 24% 30.08 in 9.0 mi WNW 4.6 mph - N/A   Clear
10:56 PM 60.1 °F 24.1 °F 25% 30.08 in 10.0 mi Calm Calm - N/A   Clear
11:56 PM 60.1 °F 25.0 °F 26% 30.08 in 10.0 mi WNW 8.1 mph - N/A   Clear